This is the latest recevied weather packets stored in our database for station/object AB1AU. If no packets are shown the sender has not sent any weather packets the latest 10 day(s).
| Time | Temp. | Humidity | Pressure | Rain* | Wind** | Luminosity | Snow |
|---|---|---|---|---|---|---|---|
| 1777739822 | 6.67° C | 80% | 1014.1 hPa | 0 mm | - | 103 W/m² | - |
| 1777739519 | 6.67° C | 81% | 1014.1 hPa | 0 mm | - | 104 W/m² | - |
| 1777739216 | 6.67° C | 81% | 1014.4 hPa | 0 mm | - | 108 W/m² | - |
| 1777738913 | 6.67° C | 82% | 1014.4 hPa | 0 mm | - | 94 W/m² | - |
| 1777738610 | 6.67° C | 83% | 1014.4 hPa | 0 mm | - | 87 W/m² | - |
| 1777738306 | 6.67° C | 82% | 1014.6 hPa | 0 mm | - | 90 W/m² | - |
| 1777738004 | 6.67° C | 82% | 1014.7 hPa | 0 mm | - | 63 W/m² | - |
| 1777737703 | 6.67° C | 81% | 1014.7 hPa | 0 mm | - | 86 W/m² | - |
| 1777737401 | 6.67° C | 81% | 1014.6 hPa | 0 mm | - | 86 W/m² | - |
| 1777737098 | 6.67° C | 80% | 1014.5 hPa | 0 mm | - | 97 W/m² | - |
| 1777736794 | 6.67° C | 80% | 1014.8 hPa | 1.78 mm | - | 92 W/m² | - |
| 1777736165 | 6.67° C | 80% | 1014.8 hPa | 0 mm | - | 114 W/m² | - |
| 1777735863 | 6.67° C | 79% | 1014.9 hPa | 0 mm | - | 78 W/m² | - |
| 1777735560 | 6.67° C | 79% | 1014.8 hPa | 0 mm | - | 78 W/m² | - |
| 1777735257 | 6.67° C | 77% | 1014.8 hPa | 0 mm | - | 51 W/m² | - |
| 1777734954 | 7.22° C | 76% | 1015 hPa | 0 mm | - | 74 W/m² | - |
| 1777734652 | 7.22° C | 76% | 1015 hPa | 0 mm | - | 84 W/m² | - |
| 1777734349 | 7.22° C | 76% | 1015.3 hPa | 0 mm | - | 98 W/m² | - |
| 1777734045 | 7.22° C | 76% | 1015.3 hPa | 0 mm | - | 98 W/m² | - |
| 1777733741 | 7.22° C | 76% | 1015.5 hPa | 0 mm | - | 129 W/m² | - |
| 1777733438 | 7.22° C | 78% | 1015.3 hPa | 0 mm | - | 147 W/m² | - |
| 1777733134 | 7.22° C | 78% | 1015.6 hPa | 0 mm | - | 102 W/m² | - |
| 1777732831 | 7.22° C | 79% | 1015.6 hPa | 0 mm | - | 114 W/m² | - |
| 1777732528 | 7.22° C | 78% | 1015.6 hPa | 0 mm | - | 143 W/m² | - |
| 1777732226 | 6.67° C | 77% | 1015.6 hPa | 0 mm | - | 126 W/m² | - |
* Rain latest hour (hover to see other rain measurements)
** Current wind speed in m/s (hover to see current wind gust speed)